Tillbaka till svenska Fidonet
English   Information   Debug  
FILM   0/18
FNEWS_PUBLISH   4926
FN_SYSOP   42201
FN_SYSOP_OLD1   71952
FTP_FIDO   0/2
FTSC_PUBLIC   0/13973
FUNNY   0/4886
GENEALOGY.EUR   0/71
GET_INFO   105
GOLDED   0/408
HAM   6084/16660
HOLYSMOKE   0/6791
HOT_SITES   0/1
HTMLEDIT   0/71
HUB203   466
HUB_100   264
HUB_400   39
HUMOR   0/29
IC   0/2851
INTERNET   0/424
INTERUSER   0/3
IP_CONNECT   719
JAMNNTPD   0/233
JAMTLAND   0/47
KATTY_KORNER   0/41
LAN   0/16
LINUX-USER   0/19
LINUXHELP   0/1155
LINUX   0/22300
LINUX_BBS   0/957
mail   18.68
mail_fore_ok   249
MENSA   0/341
MODERATOR   0/102
MONTE   0/992
MOSCOW_OKLAHOMA   0/1245
MUFFIN   0/783
MUSIC   0/321
N203_STAT   938
N203_SYSCHAT   313
NET203   321
NET204   69
NET_DEV   0/10
NORD.ADMIN   0/101
NORD.CHAT   0/2572
NORD.FIDONET   189
NORD.HARDWARE   0/28
NORD.KULTUR   0/114
NORD.PROG   0/32
NORD.SOFTWARE   0/88
NORD.TEKNIK   0/58
NORD   0/453
OCCULT_CHAT   0/93
OS2BBS   0/787
OS2DOSBBS   0/580
OS2HW   0/42
OS2INET   0/37
OS2LAN   0/134
OS2PROG   0/36
OS2REXX   0/113
OS2USER-L   207
OS2   0/4830
OSDEBATE   0/18996
PASCAL   0/490
PERL   0/457
PHP   0/45
POINTS   0/405
POLITICS   0/29554
POL_INC   0/14731
PSION   103
R20_ADMIN   1133
R20_AMATORRADIO   0/2
R20_BEST_OF_FIDONET   16
R20_CHAT   0/896
R20_DEPP   0/3
R20_DEV   400
R20_ECHO2   1831
R20_ECHOPRES   0/35
R20_ESTAT   0/719
R20_FIDONETPROG...
...RAM.MYPOINT
  0/2
R20_FIDONETPROGRAM   0/22
R20_FIDONET   0/248
R20_FILEFIND   0/24
R20_FILEFOUND   0/22
R20_HIFI   0/3
R20_INFO2   3723
R20_INTERNET   0/12940
R20_INTRESSE   0/60
R20_INTR_KOM   0/99
R20_KANDIDAT.CHAT   42
R20_KANDIDAT   28
R20_KOM_DEV   112
R20_KONTROLL   0/13360
R20_KORSET   0/18
R20_LOKALTRAFIK   0/24
R20_MODERATOR   0/1852
R20_NC   76
R20_NET200   245
R20_NETWORK.OTH...
...ERNETS
  0/13
R20_OPERATIVSYS...
...TEM.LINUX
  0/44
R20_PROGRAMVAROR   0/1
R20_REC2NEC   534
R20_SFOSM   0/341
R20_SF   0/108
R20_SPRAK.ENGLISH   0/1
R20_SQUISH   107
R20_TEST   2
R20_WORST_OF_FIDONET   20
RAR   0/9
RA_MULTI   106
RA_UTIL   0/162
REGCON.EUR   0/2068
REGCON   0/13
SCIENCE   0/1206
SF   0/239
SHAREWARE_SUPPORT   0/5146
SHAREWRE   0/14
SIMPSONS   0/169
STATS_OLD1   0/2539.065
STATS_OLD2   0/2530
STATS_OLD3   0/2395.095
STATS_OLD4   0/1692.25
SURVIVOR   0/495
SYSOPS_CORNER   0/3
SYSOP   0/84
TAGLINES   0/112
TEAMOS2   0/4530
TECH   0/2617
TEST.444   0/105
TRAPDOOR   0/19
TREK   0/755
TUB   0/290
UFO   0/40
UNIX   0/1316
USA_EURLINK   0/102
USR_MODEMS   0/1
VATICAN   0/2740
VIETNAM_VETS   0/14
VIRUS   0/378
VIRUS_INFO   0/201
VISUAL_BASIC   0/473
WHITEHOUSE   0/5187
WIN2000   0/101
WIN32   0/30
WIN95   0/4291
WIN95_OLD1   0/70272
WINDOWS   0/1517
WWB_SYSOP   0/419
WWB_TECH   0/810
ZCC-PUBLIC   0/1
ZEC   4

 
4DOS   0/134
ABORTION   0/7
ALASKA_CHAT   0/506
ALLFIX_FILE   0/1313
ALLFIX_FILE_OLD1   0/7997
ALT_DOS   0/152
AMATEUR_RADIO   0/1039
AMIGASALE   0/14
AMIGA   0/331
AMIGA_INT   0/1
AMIGA_PROG   0/20
AMIGA_SYSOP   0/26
ANIME   0/15
ARGUS   0/924
ASCII_ART   0/340
ASIAN_LINK   0/651
ASTRONOMY   0/417
AUDIO   0/92
AUTOMOBILE_RACING   0/105
BABYLON5   0/17862
BAG   135
BATPOWER   0/361
BBBS.ENGLISH   0/382
BBSLAW   0/109
BBS_ADS   0/5290
BBS_INTERNET   0/507
BIBLE   0/3563
BINKD   0/1119
BINKLEY   0/215
BLUEWAVE   0/2173
CABLE_MODEMS   0/25
CBM   0/46
CDRECORD   0/66
CDROM   0/20
CLASSIC_COMPUTER   0/378
COMICS   0/15
CONSPRCY   0/899
COOKING   41444
COOKING_OLD1   0/24719
COOKING_OLD2   0/40862
COOKING_OLD3   0/37489
COOKING_OLD4   0/35496
COOKING_OLD5   9370
C_ECHO   0/189
C_PLUSPLUS   0/31
DIRTY_DOZEN   0/201
DOORGAMES   0/2285
DOS_INTERNET   0/196
duplikat   6102
ECHOLIST   0/18295
EC_SUPPORT   0/318
ELECTRONICS   0/359
ELEKTRONIK.GER   1534
ENET.LINGUISTIC   0/13
ENET.POLITICS   0/4
ENET.SOFT   0/11701
ENET.SYSOP   34296
ENET.TALKS   0/32
ENGLISH_TUTOR   0/2000
EVOLUTION   0/1335
FDECHO   0/217
FDN_ANNOUNCE   0/7068
FIDONEWS   25062
FIDONEWS_OLD1   0/49742
FIDONEWS_OLD2   0/35949
FIDONEWS_OLD3   0/30874
FIDONEWS_OLD4   0/37224
FIDO_SYSOP   12922
FIDO_UTIL   0/180
FILEFIND   0/209
FILEGATE   0/212
Möte HAM, 16660 texter
 lista första sista föregående nästa
Text 4608, 906 rader
Skriven 2011-07-21 22:02:50 av Amsat List (1:323/120.0)
Ärende: [keps]  orb11202.amsa
=============================
[keps]  orb11202.amsa

Return-Path: <keps-bounces@amsat.org>
X-Rcpt: craig.healy@chowda.com
X-UIDL: 1311299290.2590

SB KEPS @ AMSAT  $ORB11202.O
Orbital Elements  11202.OSCAR

HR AMSAT ORBITAL ELEMENTS FOR OSCAR SATELLITES
FROM WA5QGD FORT WORTH,TX July 21, 2011
Send Subscribe/unsubscribe to KEPS at http://www.amsat.org/mailman/listinfo/kep
BID: ORB11202.O
TO ALL RADIO AMATEURS BT

Satellite: AO-07
Catalog number: 07530
Epoch time:      11202.47266022
Element set:     134
Inclination:      101.3923 deg
RA of node:       207.6610 deg
Eccentricity:    0.0011627
Arg of perigee:   211.3028 deg
Mean anomaly:     148.7357 deg
Mean motion:   12.53583211 rev/day
Decay rate:       -2.7e-07 rev/day^2
Epoch rev:           67848
Checksum:              260

Satellite: UO-11
Catalog number: 14781
Epoch time:      11201.74061837
Element set:    0612
Inclination:      098.0036 deg
RA of node:       258.3427 deg
Eccentricity:    0.0009934
Arg of perigee:   035.2596 deg
Mean anomaly:     324.9271 deg
Mean motion:   14.80001938 rev/day
Decay rate:       3.91e-06 rev/day^2
Epoch rev:           47075
Checksum:              293

Satellite: FO-29
Catalog number: 24278
Epoch time:      11202.44310118
Element set:     621
Inclination:      098.5511 deg
RA of node:       341.9584 deg
Eccentricity:    0.0350827
Arg of perigee:   168.3240 deg
Mean anomaly:     192.6306 deg
Mean motion:   13.52963891 rev/day
Decay rate:       -2.4e-07 rev/day^2
Epoch rev:           73709
Checksum:              301

Satellite: SO-33
Catalog number: 25509
Epoch time:      11201.85068753
Element set:      14
Inclination:      031.4328 deg
RA of node:       053.9125 deg
Eccentricity:    0.0353434
Arg of perigee:   176.0509 deg
Mean anomaly:     184.3064 deg
Mean motion:   14.28430262 rev/day
Decay rate:        5.8e-07 rev/day^2
Epoch rev:           66509
Checksum:              283

Satellite: RS-22
Catalog number: 27939
Epoch time:      11202.74749848
Element set:     463
Inclination:      097.8430 deg
RA of node:       055.0881 deg
Eccentricity:    0.0012397
Arg of perigee:   233.7208 deg
Mean anomaly:     126.2853 deg
Mean motion:   14.63612520 rev/day
Decay rate:       1.42e-06 rev/day^2
Epoch rev:           41739
Checksum:              307

Satellite: VO-52
Catalog number: 28650
Epoch time:      11202.66179723
Element set:     851
Inclination:      097.6393 deg
RA of node:       244.2472 deg
Eccentricity:    0.0027944
Arg of perigee:   050.3080 deg
Mean anomaly:     310.0590 deg
Mean motion:   14.82116807 rev/day
Decay rate:       1.52e-06 rev/day^2
Epoch rev:           33585
Checksum:              291

Satellite: SO-67
Catalog number: 35870
Epoch time:      11202.89402542
Element set:      49
Inclination:      097.2783 deg
RA of node:       245.0962 deg
Eccentricity:    0.0000573
Arg of perigee:   251.9462 deg
Mean anomaly:     212.0957 deg
Mean motion:   15.20887611 rev/day
Decay rate:      1.442e-05 rev/day^2
Epoch rev:           10221
Checksum:              288

Satellite: HO-68
Catalog number: 36122
Epoch time:      11202.74625606
Element set:     576
Inclination:      100.4134 deg
RA of node:       263.0313 deg
Eccentricity:    0.0007879
Arg of perigee:   144.4933 deg
Mean anomaly:     215.6710 deg
Mean motion:   13.16287198 rev/day
Decay rate:       -4.4e-07 rev/day^2
Epoch rev:            7678
Checksum:              294

/EX
SB KEPS @ AMSAT  $ORB11202.D
Orbital Elements  11202.MICROS

HR AMSAT ORBITAL ELEMENTS FOR THE MICROSATS
FROM WA5QGD FORT WORTH,TX July 21, 2011
Send Subscribe/unsubscribe to KEPS at http://www.amsat.org/mailman/listinfo/kep
BID: ORB11202.D
TO ALL RADIO AMATEURS BT

Satellite: AO-16
Catalog number: 20439
Epoch time:      11201.98185478
Element set:    0252
Inclination:      098.3870 deg
RA of node:       150.4740 deg
Eccentricity:    0.0011932
Arg of perigee:   064.1392 deg
Mean anomaly:     296.1016 deg
Mean motion:   14.31929152 rev/day
Decay rate:        1.0e-07 rev/day^2
Epoch rev:           12245
Checksum:              274

Satellite: LO-19
Catalog number: 20442
Epoch time:      11201.91631519
Element set:    0166
Inclination:      098.3494 deg
RA of node:       154.6327 deg
Eccentricity:    0.0012813
Arg of perigee:   058.7396 deg
Mean anomaly:     301.5037 deg
Mean motion:   14.32154587 rev/day
Decay rate:        6.6e-07 rev/day^2
Epoch rev:           12262
Checksum:              288

Satellite: AO-27
Catalog number: 22825
Epoch time:      11201.89117452
Element set:     870
Inclination:      098.5334 deg
RA of node:       145.6530 deg
Eccentricity:    0.0008339
Arg of perigee:   170.6796 deg
Mean anomaly:     189.4536 deg
Mean motion:   14.29355400 rev/day
Decay rate:       1.42e-06 rev/day^2
Epoch rev:           92900
Checksum:              306

Satellite: IO-26
Catalog number: 22826
Epoch time:      11201.88444149
Element set:    0615
Inclination:      098.5257 deg
RA of node:       146.1096 deg
Eccentricity:    0.0008830
Arg of perigee:   164.6703 deg
Mean anomaly:     195.4748 deg
Mean motion:   14.29617805 rev/day
Decay rate:        2.3e-07 rev/day^2
Epoch rev:           92912
Checksum:              316

Satellite: GO-32
Catalog number: 25397
Epoch time:      11201.51732011
Element set:    0535
Inclination:      098.3270 deg
RA of node:       192.2990 deg
Eccentricity:    0.0001540
Arg of perigee:   138.8388 deg
Mean anomaly:     221.2916 deg
Mean motion:   14.23213598 rev/day
Decay rate:        5.7e-07 rev/day^2
Epoch rev:           67670
Checksum:              289

